• In Hungary
  • List of Countries
  • For 7 days
  • Water Temperature
  • Satellite Maps
  • Weather Map
  • News
  • Weather Widgets
  • user-avatar
    Login

    Hourly Weather Izhberdino

    Today, 26 May, Saturday

    Time Temperature Precipitation Wind Pressure Humidity
    00:00 +8°C° 1.3 mm 6 mps 737 mmHg 88%
    01:00 +7°C° 1.3 mm 6 mps 737 mmHg 88%
    02:00 +5°C° 0.5 mm 6 mps 737 mmHg 87%
    03:00 +5°C° 0.5 mm 6 mps 737 mmHg 87%
    04:00 +5°C° 0 mm 6 mps 738 mmHg 86%
    05:00 +5°C° 0 mm 6 mps 738 mmHg 83%
    06:00 +5°C° 0 mm 7 mps 739 mmHg 81%
    07:00 +6°C° 0 mm 7 mps 739 mmHg 78%
    08:00 +8°C° 0 mm 7 mps 739 mmHg 70%
    09:00 +9°C° 0 mm 8 mps 740 mmHg 61%
    10:00 +10°C° 0 mm 8 mps 741 mmHg 52%
    11:00 +10°C° 0 mm 8 mps 741 mmHg 50%
    12:00 +11°C° 0 mm 8 mps 741 mmHg 47%
    13:00 +11°C° 0 mm 8 mps 742 mmHg 44%
    14:00 +11°C° 0 mm 7 mps 742 mmHg 45%
    15:00 +11°C° 0 mm 7 mps 742 mmHg 46%
    16:00 +11°C° 0 mm 7 mps 743 mmHg 47%
    17:00 +10°C° 0 mm 6 mps 743 mmHg 50%
    18:00 +9°C° 0 mm 6 mps 744 mmHg 52%
    19:00 +9°C° 0 mm 5 mps 744 mmHg 55%
    20:00 +7°C° 0 mm 5 mps 745 mmHg 56%
    21:00 +6°C° 0 mm 4 mps 746 mmHg 57%
    22:00 +5°C° 0 mm 4 mps 746 mmHg 58%
    23:00 +4°C° 0 mm 4 mps 747 mmHg 59%

    Tomorrow, 27 May, Sunday

    Time Temperature Precipitation Wind Pressure Humidity
    00:00 +3°C° 0 mm 4 mps 747 mmHg 61%
    01:00 +3°C° 0 mm 3 mps 748 mmHg 62%
    02:00 +2°C° 0 mm 3 mps 748 mmHg 64%
    03:00 +2°C° 0 mm 3 mps 748 mmHg 66%
    04:00 +2°C° 0 mm 2 mps 748 mmHg 68%
    05:00 +3°C° 0 mm 3 mps 749 mmHg 64%
    06:00 +4°C° 0 mm 3 mps 749 mmHg 61%
    07:00 +7°C° 0 mm 3 mps 749 mmHg 57%
    08:00 +8°C° 0 mm 4 mps 749 mmHg 53%
    09:00 +9°C° 0 mm 5 mps 749 mmHg 50%
    10:00 +12°C° 0 mm 5 mps 749 mmHg 46%
    11:00 +13°C° 0 mm 5 mps 748 mmHg 46%
    12:00 +14°C° 0 mm 5 mps 747 mmHg 47%
    13:00 +15°C° 0 mm 5 mps 747 mmHg 47%
    14:00 +16°C° 0 mm 6 mps 746 mmHg 49%
    15:00 +16°C° 0 mm 6 mps 746 mmHg 51%
    16:00 +16°C° 0 mm 6 mps 745 mmHg 53%
    17:00 +15°C° 0 mm 6 mps 745 mmHg 58%
    18:00 +15°C° 0 mm 5 mps 744 mmHg 63%
    19:00 +14°C° 0 mm 4 mps 744 mmHg 68%
    20:00 +13°C° 0 mm 4 mps 744 mmHg 71%
    21:00 +11°C° 0 mm 4 mps 743 mmHg 74%
    22:00 +10°C° 0 mm 4 mps 743 mmHg 77%
    23:00 +10°C° 0 mm 4 mps 742 mmHg 77%

    Day after tomorrow, 28 May, Monday

    Time Temperature Precipitation Wind Pressure Humidity
    00:00 +9°C° 0 mm 5 mps 742 mmHg 76%
    01:00 +8°C° 0 mm 5 mps 741 mmHg 76%
    02:00 +8°C° 0 mm 5 mps 740 mmHg 75%
    03:00 +9°C° 0 mm 6 mps 739 mmHg 75%
    04:00 +9°C° 0 mm 6 mps 738 mmHg 74%
    05:00 +9°C° 0.3 mm 7 mps 738 mmHg 75%
    06:00 +9°C° 0.3 mm 8 mps 737 mmHg 76%
    07:00 +9°C° 0.3 mm 8 mps 736 mmHg 77%
    08:00 +9°C° 1.8 mm 7 mps 736 mmHg 82%
    09:00 +9°C° 1.8 mm 7 mps 736 mmHg 87%
    10:00 +8°C° 1.8 mm 6 mps 736 mmHg 91%
    11:00 +9°C° 0.6 mm 6 mps 736 mmHg 87%
    12:00 +9°C° 0.6 mm 6 mps 736 mmHg 83%
    13:00 +10°C° 0.6 mm 6 mps 737 mmHg 79%
    14:00 +10°C° 0.4 mm 6 mps 737 mmHg 75%
    15:00 +11°C° 0.4 mm 6 mps 737 mmHg 72%
    16:00 +11°C° 0.4 mm 6 mps 738 mmHg 69%
    17:00 +10°C° 0.3 mm 6 mps 738 mmHg 72%
    18:00 +9°C° 0.3 mm 5 mps 738 mmHg 76%
    19:00 +8°C° 0.3 mm 5 mps 739 mmHg 79%
    20:00 +7°C° 0 mm 4 mps 739 mmHg 82%
    21:00 +6°C° 0 mm 4 mps 740 mmHg 84%
    22:00 +4°C° 0 mm 4 mps 740 mmHg 87%
    23:00 +4°C° 0 mm 4 mps 740 mmHg 87%

    29 May, Tuesday

    Time Temperature Precipitation Wind Pressure Humidity
    00:00 +3°C° 0 mm 4 mps 740 mmHg 87%
    01:00 +2°C° 0 mm 3 mps 741 mmHg 88%
    02:00 +1°C° 0 mm 3 mps 741 mmHg 89%
    03:00 +1°C° 0 mm 3 mps 741 mmHg 89%
    04:00 0°C° 0 mm 3 mps 741 mmHg 90%
    05:00 +1°C° 0 mm 4 mps 741 mmHg 85%
    06:00 +3°C° 0 mm 4 mps 742 mmHg 80%
    07:00 +3°C° 0 mm 5 mps 742 mmHg 75%
    08:00 +5°C° 0 mm 5 mps 742 mmHg 68%
    09:00 +7°C° 0 mm 6 mps 741 mmHg 61%
    10:00 +8°C° 0 mm 6 mps 741 mmHg 54%
    11:00 +8°C° 0 mm 6 mps 741 mmHg 54%
    12:00 +8°C° 0 mm 6 mps 740 mmHg 54%
    13:00 +8°C° 0 mm 6 mps 740 mmHg 54%
    14:00 +9°C° 0 mm 6 mps 740 mmHg 55%
    15:00 +9°C° 0 mm 6 mps 740 mmHg 57%
    16:00 +9°C° 0 mm 6 mps 739 mmHg 58%
    17:00 +8°C° 0.3 mm 5 mps 739 mmHg 67%
    18:00 +7°C° 0.3 mm 4 mps 739 mmHg 76%
    19:00 +7°C° 0.3 mm 3 mps 738 mmHg 86%
    20:00 +7°C° 0.1 mm 3 mps 738 mmHg 88%
    21:00 +6°C° 0.1 mm 2 mps 738 mmHg 91%
    22:00 +6°C° 0.1 mm 2 mps 738 mmHg 94%
    23:00 +5°C° 0.1 mm 2 mps 738 mmHg 95%

    30 May, Wednesday

    Time Temperature Precipitation Wind Pressure Humidity
    00:00 +5°C° 0.1 mm 2 mps 738 mmHg 96%
    01:00 +4°C° 0.1 mm 2 mps 737 mmHg 98%
    02:00 +4°C° 0 mm 2 mps 737 mmHg 97%
    03:00 +4°C° 0 mm 2 mps 737 mmHg 97%
    04:00 +5°C° 0 mm 1 mps 737 mmHg 97%
    05:00 +5°C° 0 mm 2 mps 737 mmHg 95%
    06:00 +7°C° 0 mm 2 mps 737 mmHg 92%
    07:00 +8°C° 0 mm 2 mps 737 mmHg 90%
    08:00 +9°C° 0.1 mm 3 mps 737 mmHg 82%
    09:00 +10°C° 0.1 mm 4 mps 737 mmHg 75%
    10:00 +12°C° 0.1 mm 5 mps 737 mmHg 68%
    11:00 +12°C° 0 mm 5 mps 737 mmHg 62%
    12:00 +13°C° 0 mm 5 mps 737 mmHg 57%
    13:00 +14°C° 0 mm 6 mps 737 mmHg 52%
    14:00 +13°C° 0.1 mm 5 mps 737 mmHg 57%
    15:00 +13°C° 0.1 mm 4 mps 737 mmHg 61%
    16:00 +12°C° 0.1 mm 3 mps 737 mmHg 66%
    17:00 +11°C° 0.5 mm 3 mps 737 mmHg 75%
    18:00 +10°C° 0.5 mm 2 mps 737 mmHg 83%
    19:00 +10°C° 0.5 mm 1 mps 737 mmHg 92%
    20:00 +9°C° 0.7 mm 1 mps 737 mmHg 93%
    21:00 +8°C° 0.7 mm 1 mps 737 mmHg 94%
    22:00 +8°C° 0.7 mm 1 mps 737 mmHg 95%
    23:00 +7°C° 0 mm 1 mps 737 mmHg 94%

    31 May, Thursday

    Time Temperature Precipitation Wind Pressure Humidity
    00:00 +7°C° 0 mm 1 mps 737 mmHg 94%
    01:00 +6°C° 0 mm 1 mps 737 mmHg 93%
    02:00 +4°C° 0 mm 2 mps 738 mmHg 93%
    03:00 +4°C° 0 mm 2 mps 738 mmHg 93%
    04:00 +3°C° 0 mm 2 mps 738 mmHg 93%
    05:00 +5°C° 0 mm 2 mps 738 mmHg 88%
    06:00 +6°C° 0 mm 2 mps 739 mmHg 83%
    07:00 +8°C° 0 mm 2 mps 739 mmHg 78%
    08:00 +10°C° 0 mm 2 mps 739 mmHg 69%
    09:00 +12°C° 0 mm 2 mps 739 mmHg 59%
    10:00 +14°C° 0 mm 2 mps 739 mmHg 49%
    11:00 +13°C° 0 mm 3 mps 739 mmHg 49%
    12:00 +14°C° 0 mm 3 mps 739 mmHg 49%
    13:00 +16°C° 0 mm 3 mps 739 mmHg 49%
    14:00 +16°C° 0 mm 3 mps 738 mmHg 50%
    15:00 +16°C° 0 mm 2 mps 738 mmHg 52%
    16:00 +16°C° 0 mm 2 mps 738 mmHg 53%
    17:00 +15°C° 0.1 mm 2 mps 737 mmHg 61%
    18:00 +14°C° 0.1 mm 2 mps 737 mmHg 68%
    19:00 +12°C° 0.1 mm 2 mps 736 mmHg 76%
    20:00 +11°C° 2 mm 3 mps 736 mmHg 81%
    21:00 +10°C° 2 mm 4 mps 735 mmHg 87%
    22:00 +8°C° 2 mm 5 mps 734 mmHg 92%
    23:00 +8°C° 2.9 mm 5 mps 733 mmHg 93%
    Show more